sat.trackr.live / text

‹ back to catalog

STARLINK-31202

NORAD 59042 · 2024-038V

PAYLOAD ACTIVE UNKNOWN

§ Identity

Operator
Country
US
Launch date
2024-02-25
Launch site
AFETR
Launch vehicle
Mass (kg)
RCS (m²)

Purposes: comms

External: N2YO · Heavens-Above · Gunter

§ Orbital elements

Epoch: 2026-05-25T04:27:06.182208Z

Period
94.26 min
Inclination
43.0034°
Eccentricity
0.0002301
Mean motion
15.27620498 rev/d
Perigee alt
481.3 km
Apogee alt
484.5 km
Semi-major
6,861.1 km
B*
1.4462e-4
RAAN
311.0194°
Arg perigee
329.4148°
Mean anomaly
30.6569°
Rev number
12,656

§ Raw data

STARLINK-312021 59042U 24038V   26145.18548822  .00003724  00000+0  14462-3 0  99982 59042  43.0034 311.0194 0002301 329.4148  30.6569 15.27620498126565

JSON: /api/v1/satellites/59042 · /tle

For live sub-satellite position, see the globe view (requires WebGL).

§ Visibility from observer

Set your observer location to see the next 7 days of passes ≥ 10°. The values pass through the URL so the page stays shareable.

No JS? Fill the form by hand. The geolocation button needs JavaScript.